Tacoma, WA

10:31 PM PST on February 08, 2016 (GMT -0800)
McChord Air Force Base

Weather History for KTCM - March, 2013

Change the Weather History Date:

Monday, March 18, 2013

  Actual Average Record
Temperature  
Mean Temperature 42 °F -  
Max Temperature 52 °F 52 °F 69 °F (1988)
Min Temperature 31 °F 35 °F 22 °F (1965)
Degree Days  
Heating Degree Days 24    
Moisture  
Dew Point 35 °F    
Average Humidity 80    
Maximum Humidity 100    
Minimum Humidity 44    
Precipitation  
Precipitation 0.01 in - - ()
Sea Level Pressure  
Sea Level Pressure 30.21 in    
Wind  
Wind Speed 10 mph (SSW)    
Max Wind Speed 18 mph    
Max Gust Speed 25 mph    
Visibility 10 miles    
Events Rain    
Averages and records for this station are not official NWS values.
T = Trace of Precipitation, MM = Missing Value Source: NWS Daily Summary

Daily Weather History Graph

Daily Weather History Graph

Search for Another Location

Airport or City:

Trip Planner

Search our weather history database for the weather conditions in past years. The results will help you decide how hot, cold, wet, or windy it might be!

Date:

Astronomy

Mar. 18, 2013 Rise Set
Actual Time 7:16 AM PDT 7:20 PM PDT
Civil Twilight 6:45 AM PDT 7:50 PM PDT
Nautical Twilight 6:10 AM PDT 8:26 PM PDT
Astronomical Twilight 5:33 AM PDT 9:03 PM PDT
Moon 10:57 AM PDT (3/18) 1:46 AM PDT (3/18)
Length of Visible Light 13h 05m
Length of Day
12h 04m
Waxing Crescent, 41% of the Moon is Illuminated
Mar 18
Waxing Crescent
Mar 19
First Quarter
Mar 27
Full
Apr 2
Last Quarter
Apr 10
New

Hourly Weather History & Observations

Time (PDT) Temp. Windchill Dew Point Humidity Pressure Visibility Wind Dir Wind Speed Gust Speed Precip Events Conditions
12:24 AM 39.2 °F 33.6 °F 35.6 °F 87% 30.21 in 10.0 mi SSW 8.1 mph - N/A   Overcast
12:34 AM 39.2 °F 34.2 °F 35.6 °F 87% 30.21 in 10.0 mi SSW 6.9 mph - N/A   Overcast
12:41 AM 39.2 °F 33.6 °F 35.6 °F 87% 30.21 in 10.0 mi SSW 8.1 mph - N/A   Overcast
12:58 AM 38.7 °F 33.6 °F 35.1 °F 87% 30.22 in 10.0 mi SSW 6.9 mph - N/A   Overcast
1:03 AM 39.2 °F 34.2 °F 35.6 °F 87% 30.20 in 10.0 mi SSW 6.9 mph - N/A   Mostly Cloudy
1:30 AM 37.4 °F 32.1 °F 35.6 °F 93% 30.20 in 10.0 mi South 6.9 mph - N/A   Mostly Cloudy
1:58 AM 38.7 °F 31.8 °F 35.1 °F 87% 30.22 in 10.0 mi South 10.4 mph - N/A   Overcast
2:28 AM 39.2 °F 31.6 °F 35.6 °F 87% 30.20 in 10.0 mi South 12.7 mph 17.3 mph N/A   Overcast
2:58 AM 38.5 °F 33.4 °F 34.9 °F 87% 30.22 in 10.0 mi South 6.9 mph - N/A   Mostly Cloudy
3:29 AM 39.2 °F 32.0 °F 35.6 °F 87% 30.18 in 10.0 mi South 11.5 mph - N/A   Mostly Cloudy
3:58 AM 39.2 °F 30.8 °F 33.8 °F 81% 30.20 in 10.0 mi South 15.0 mph - N/A   Mostly Cloudy
4:58 AM 38.3 °F 33.9 °F 34.9 °F 87% 30.20 in 10.0 mi SSW 5.8 mph - N/A   Mostly Cloudy
5:58 AM 38.1 °F 31.7 °F 34.9 °F 88% 30.20 in 10.0 mi SSW 9.2 mph 17.3 mph N/A   Overcast
6:16 AM 39.2 °F 30.8 °F 35.6 °F 87% 30.17 in 10.0 mi South 15.0 mph 19.6 mph N/A Rain Light Rain
6:27 AM 39.2 °F 32.5 °F 35.6 °F 87% 30.18 in 10.0 mi South 10.4 mph - N/A   Overcast
6:31 AM 39.2 °F 32.0 °F 35.6 °F 87% 30.18 in 10.0 mi South 11.5 mph 18.4 mph N/A Rain Light Rain
6:36 AM 39.2 °F 31.6 °F 35.6 °F 87% 30.18 in 10.0 mi SSW 12.7 mph 18.4 mph N/A Rain Light Rain
6:52 AM 39.2 °F 32.5 °F 35.6 °F 87% 30.18 in 10.0 mi South 10.4 mph 20.7 mph N/A Rain Light Rain
6:58 AM 39.2 °F 32.5 °F 36.0 °F 88% 30.20 in 10.0 mi South 10.4 mph 20.7 mph 0.01 in Rain Light Rain
7:08 AM 39.2 °F 31.2 °F 35.6 °F 87% 30.17 in 10.0 mi South 13.8 mph 19.6 mph N/A Rain Light Rain
7:09 AM 39.2 °F 30.8 °F 35.6 °F 87% 30.17 in 10.0 mi South 15.0 mph 19.6 mph N/A   Overcast
7:19 AM 39.2 °F 30.2 °F 35.6 °F 87% 30.17 in 10.0 mi South 17.3 mph 23.0 mph N/A   Overcast
7:58 AM 39.0 °F 31.4 °F 37.2 °F 93% 30.20 in 10.0 mi South 12.7 mph 20.7 mph 0.00 in   Overcast
7:59 AM 39.2 °F 30.8 °F 37.4 °F 93% 30.18 in 10.0 mi South 15.0 mph - N/A Rain Light Rain
8:39 AM 39.2 °F 31.6 °F 37.4 °F 93% 30.18 in 8.0 mi South 12.7 mph - N/A Rain Light Rain
8:45 AM 39.2 °F 31.2 °F 39.2 °F 100% 30.18 in 9.0 mi SSW 13.8 mph 20.7 mph N/A   Overcast
8:55 AM 39.2 °F 30.5 °F 37.4 °F 93% 30.18 in 10.0 mi South 16.1 mph 21.9 mph N/A   Overcast
8:58 AM 39.4 °F 30.7 °F 38.3 °F 96% 30.20 in 10.0 mi South 16.1 mph 21.9 mph 0.00 in   Overcast
9:08 AM 39.2 °F 29.8 °F 39.2 °F 100% 30.18 in 10.0 mi South 18.4 mph 23.0 mph N/A   Mostly Cloudy
9:58 AM 42.1 °F 33.6 °F 39.7 °F 91% 30.20 in 10.0 mi SSW 18.4 mph 25.3 mph N/A   Scattered Clouds
10:58 AM 44.6 °F 37.4 °F 41.0 °F 87% 30.21 in 10.0 mi South 16.1 mph 23.0 mph N/A   Mostly Cloudy
11:58 AM 46.9 °F - 38.5 °F 72% 30.22 in 10.0 mi SW 17.3 mph 25.3 mph N/A   Overcast
12:08 PM 46.4 °F 40.1 °F 37.4 °F 71% 30.20 in 10.0 mi SSW 15.0 mph 19.6 mph N/A   Overcast
12:13 PM 48.2 °F - 37.4 °F 66% 30.20 in 10.0 mi SSW 17.3 mph 24.2 mph N/A   Overcast
12:18 PM 46.4 °F 41.5 °F 37.4 °F 71% 30.20 in 10.0 mi SW 10.4 mph 24.2 mph N/A   Overcast
12:23 PM 48.2 °F - 37.4 °F 66% 30.21 in 10.0 mi SW 10.4 mph 17.3 mph N/A   Overcast
12:58 PM 48.2 °F - 34.0 °F 58% 30.23 in 10.0 mi SW 10.4 mph - N/A   Overcast
1:58 PM 50.0 °F - 32.0 °F 50% 30.23 in 10.0 mi SW 16.1 mph 19.6 mph N/A   Mostly Cloudy
2:58 PM 50.0 °F - 31.1 °F 48% 30.23 in 10.0 mi West 11.5 mph 19.6 mph N/A   Mostly Cloudy
3:58 PM 52.0 °F - 30.9 °F 45% 30.23 in 10.0 mi WSW 10.4 mph 18.4 mph N/A   Partly Cloudy
4:58 PM 52.0 °F - 30.4 °F 44% 30.24 in 10.0 mi West 5.8 mph 17.3 mph N/A   Clear
5:58 PM 51.1 °F - 30.2 °F 45% 30.23 in 10.0 mi West 6.9 mph - N/A   Clear
6:58 PM 48.2 °F - 30.9 °F 51% 30.23 in 10.0 mi West 3.5 mph - N/A   Clear
7:58 PM 45.1 °F - 30.7 °F 57% 30.24 in 10.0 mi Calm Calm - N/A   Clear
8:58 PM 44.2 °F - 32.0 °F 62% 30.25 in 10.0 mi Calm Calm - N/A   Clear
9:58 PM 35.6 °F - 32.0 °F 87% 30.25 in 10.0 mi Calm Calm - N/A   Clear
10:58 PM 31.8 °F - 30.6 °F 95% 30.25 in 10.0 mi Calm Calm - N/A   Clear
11:58 PM 32.5 °F - 30.6 °F 92% 30.24 in 10.0 mi Calm Calm - N/A   Clear